SL-14 R/B (20466 NORAD) Tracking and Keplerian Element Data

This shows tracking and keplerian element data for the satellite.

Feedback or suggestion? Click here.




ElementValue
Catalog20466
NameSL-14 R/B
Epoch Orbit51502
Epoch Day198.94425763
Epoch Year2018
RAAN2.2961
Inclination82.503
Eccentricity0.0021925
Argument of Perigee116.8299
Mean Anonmoly243.5161
Mean Motion14.8132892
Decay Rate6.4E-07
L11 20466U 90010B 18198.94425763 .00000064 00000-0 51063-5 0 9995
L22 20466 82.5030 2.2961 0021925 116.8299 243.5161 14.81328920515026

Live tracking and technical data element details for SL-14 R/B (NORAD 20466). SL-14 R/B can be tracked NOW for your location showing map with azimuth and elevation plus other details from your city location.

Track the satellite on the map from your city or location and see movement details for azimuth, elevation, latitude, longitude, range, height, and movement on the map or in text.







IsCatalogInMostPopularTable: catalog: 20466, numindb: 26
Update: records affected: 1



GetName: 20466 SL-14 R/B

Hit Count: updated at: Thu, 19 Jul 2018 21:15:01 GMT